Regional Weather Roundup
Issued by NWS Sioux Falls, SD

Home | Current Version | Previous Version | Text Only | Print | Product List | Glossary On
Versions: 1 2 3 4 5 6 7 8 9 10 11 12 13 14 15 16 17 18 19 20 21 22 23 24 25 26 27 28 29 30 31 32 33 34 35 36 37 38 39 40 41 42 43 44 45 46 47 48 49 50
000
ASUS43 KFSD 040602
RWRFSD

WEATHER ROUNDUP FOR SE SOUTH DAKOTA/SW MINNESOTA/NW IOWA
NATIONAL WEATHER SERVICE SIOUX FALLS SD
1200 AM CST WED MAR 04 2015

NOTE: "FAIR" INDICATES FEW OR NO CLOUDS BELOW 12,000 FEET WITH NO
SIGNIFICANT WEATHER AND OR OBSTRUCTIONS TO VISIBILITY.


SDZ038>040-050-052>070-040700-
SOUTHEAST SOUTH DAKOTA

CITY           SKY/WX    TMP DP  RH WIND       PRES   REMARKS
CHAMBERLAIN    NOT AVBL
HURON          PTCLDY    -6 -10  83 W7        30.13R WCI -20
6HR MIN TEMP:  -6; 6HR MAX TEMP:  15;

MADISON        FAIR       0  -2  92 NW7       30.07R WCI -13
MITCHELL       PTCLDY     4  -1  80 NW7       30.15R WCI  -8
6HR MIN TEMP:   4; 6HR MAX TEMP:  17;

SIOUX FALLS    MOCLDY     6  -1  73 NW6       30.11R WCI  -4
6HR MIN TEMP:   6; 6HR MAX TEMP:  14;

WINNER         FAIR       8  -2  63 W12       30.12R WCI  -7
YANKTON        MOCLDY    12   5  73 SW5       30.17R WCI   4
$$

MNZ071-072-080-081-089-090-097-098-040700-
SOUTHWEST MINNESOTA

CITY           SKY/WX    TMP DP  RH WIND       PRES   REMARKS
FAIRMONT       CLEAR      9   0  66 NW12      30.05S WCI  -6
JACKSON        CLEAR     10   0  61 NW18G24   30.06R WCI  -8
LUVERNE        PTCLDY     9   1  72 NW5       30.10R WCI   0
MARSHALL       CLEAR      1  -8  66 NW10      30.09R WCI -14
6HR MIN TEMP:   1; 6HR MAX TEMP:  12;

MONTEVIDEO     FAIR       3  -2  78 N16G22    30.09R WCI -16
PIPESTONE      CLEAR      3  -4  72 N12       30.06R WCI -13
REDWOOD FALLS  CLEAR      5  -5  63 NW16G23   30.08R WCI -14
TRACY          PTCLDY     6  -3  68 NW16      30.08R WCI -13
WINDOM         CLEAR      7  -2  66 NW17      30.06R WCI -12
WORTHINGTON    PTCLDY     7  -4  61 NW14      30.08R WCI -10
$$

IAZ001>003-012>014-020>022-031-032-NEZ013-014-SDZ071-040700-
NORTHWEST IOWA

CITY           SKY/WX    TMP DP  RH WIND       PRES   REMARKS
DENISON        CLOUDY    14   5  67 NW9       30.13R WCI   2
ESTHERVILLE    CLEAR      8   1  73 NW12      30.07R WCI  -7
SIOUX CITY     CLOUDY    16   6  65 NW6       30.17R WCI   7
6HR MIN TEMP:  16; 6HR MAX TEMP:  21;

SPENCER        PTCLDY    10   0  63 NW14      30.10R WCI  -6
6HR MIN TEMP:  10; 6HR MAX TEMP:  16;

$$

ABBREVIATIONS USED IN REMARKS
   TC - TEMPERATURE IN CELSIUS
  WCI - WIND CHILL INDEX
   HX - HEAT INDEX
  VSB - VISIBILITY



USA.gov is the U.S. government's official web portal to all federal, state and local government web resources and services.